#timestamp,LO_Frequency,Hit,StdDev 
1627671615.1,286047000.7,N
1627671616.0,286047000.7,N
1627671635.8,286047001.1,N
1627671655.6,286046998.3,N
1627671675.5,286046998.3,N
1627671695.3,286046999.3,N
1627671715.1,286046998.1,N
1627671735.9,286046998.6,N
1627671755.7,286046998.6,N
1627671775.5,286046998.6,N
1627671795.4,286046998.7,N
1627671815.2,286046998.6,N
1627671835.0,286046998.6,N
1627671835.9,286046998.6,N
1627671855.8,286046998.5,N
1627671875.6,286046998.1,N
1627671895.4,286046998.6,N
1627671915.3,286047000.9,N
1627671935.1,286046998.6,N
1627671936.0,286046998.6,N
1627671955.8,286046999.4,N
1627671975.7,286046998.8,N
1627671995.5,286046999.3,N
1627672015.3,286046999.3,N
1627672035.2,286046999.1,N
1627672055.9,286046998.1,N
1627672075.7,286046998.1,N
1627672095.6,286047001.2,N
1627672115.4,286046999.3,N
1627672135.2,286046999.0,N
1627672155.1,286046999.0,N
1627672156.0,286046999.0,N
1627672175.8,286046998.8,N
1627672195.6,286046998.8,N
1627672215.5,286046998.4,N
1627672235.3,286046998.6,N
1627672255.1,286046998.3,N
1627672275.9,286046998.2,N
1627672295.7,286047000.9,N
1627672315.5,286046998.1,N
1627672335.3,286046998.2,N
1627672355.2,286046998.1,N
1627672375.0,286046998.6,N
1627672375.9,286046998.6,N
1627672395.8,286046998.1,N
1627672415.6,286047000.1,N
1627672435.4,286047000.2,N
1627672455.2,286047000.3,N
1627672475.1,286047001.0,N
1627672476.0,286047001.0,N
1627672495.8,286047000.3,N
1627672515.6,286046999.9,N
1627672535.5,286047000.5,N
1627672555.3,286047000.4,N
1627672575.1,286046998.3,N
1627672595.9,286046998.6,N
1627672615.7,286046998.8,N
1627672635.5,286046999.4,N
1627672655.4,286046998.2,N
1627672675.2,286047000.5,N
1627672695.0,286047002.4,N
1627672695.9,286047002.4,N
1627672715.8,286046999.8,N
1627672735.6,286046998.3,N
1627672755.4,286047000.5,N
1627672775.3,286046998.1,N
1627672795.1,286046998.2,N
1627672815.8,286046998.7,N
1627672835.7,286046998.7,N
1627672855.5,286046998.9,N
1627672875.3,286046998.9,N
1627672895.2,286046999.4,N
1627672915.0,286046996.5,N
1627672915.9,286046996.5,N
1627672935.7,286046999.6,N
1627672955.6,286046996.7,N
1627672975.4,286046996.7,N
1627672995.2,286046997.2,N
1627673015.1,286046997.8,N
1627673016.0,286046997.8,N
1627673035.8,286046997.7,N
1627673055.6,286046999.4,N
1627673075.5,286046996.5,N
1627673095.3,286046997.2,N
1627673115.1,286046996.7,N
1627673135.9,286046997.0,N
1627673155.7,286046994.9,Y
1627673175.5,286046999.1,P
1627673195.4,286046999.1,P
1627673215.2,286046999.3,N
1627673235.1,286046998.6,Y
1627673236.0,286046998.6,P
1627673255.8,286046998.6,P
1627673275.6,286047000.7,P
1627673295.5,286047001.1,N
1627673315.3,286046998.8,N
1627673335.1,286046998.6,N
1627673355.9,286047001.1,N
1627673375.7,286047001.2,N
1627673395.5,286046998.7,N
1627673415.4,286046998.4,N
1627673435.2,286046998.7,N
1627673455.0,286046998.8,N
1627673455.9,286046998.8,N
1627673475.8,286046999.0,N
1627673495.6,286046996.9,Y
1627673515.4,286046999.4,P
1627673535.3,286046998.4,P
1627673555.1,286047001.1,N
1627673556.0,286047001.1,N
1627673575.8,286047000.7,N
1627673595.7,286047000.4,N
1627673615.5,286047002.8,N
1627673635.3,286047000.1,N
1627673655.2,286047000.1,N
1627673675.9,286047000.4,N
1627673695.7,286047000.5,N
1627673715.6,286047000.7,N
1627673735.4,286046998.2,N
1627673755.2,286047000.8,N
1627673775.1,286046998.5,N
1627673776.0,286046998.5,N
1627673795.8,286046998.9,N
1627673815.6,286046998.2,N
1627673835.5,286047000.7,N
1627673855.3,286047000.7,N
1627673875.1,286047001.1,N
1627673895.9,286047000.6,N
1627673915.7,286047001.1,N
1627673935.5,286047001.2,N
1627673955.4,286047000.4,N
1627673975.2,286047000.5,N
1627673995.0,286047000.4,N
1627673995.9,286047000.4,N
1627674015.8,286047000.0,N
1627674035.6,286047002.8,N
1627674055.4,286047002.6,N
1627674075.3,286047002.8,N
1627674095.1,286047000.1,N
1627674096.0,286047000.1,N
1627674115.8,286047000.9,N
1627674135.7,286046998.2,N
1627674155.5,286046998.6,N
1627674175.3,286047000.8,N
1627674195.2,286047001.0,N
1627674215.9,286047001.1,N
1627674235.7,286047001.1,N
1627674255.6,286047001.0,N
1627674275.4,286047001.2,N
1627674295.2,286046998.7,N
1627674315.1,286046996.9,N
1627674316.0,286046996.9,N
1627674335.8,286046996.8,N
1627674355.6,286046996.9,N
1627674375.5,286046996.6,N
1627674395.3,286046996.5,N
1627674415.1,286046999.1,N
1627674435.9,286046998.8,N
1627674455.7,286046998.4,N
1627674475.5,286047000.7,N
1627674495.4,286046998.6,N
1627674515.2,286046999.6,N
1627674535.0,286046999.6,N
1627674535.9,286046999.6,N
1627674555.8,286046999.5,N
1627674575.6,286046999.6,N
1627674595.4,286046997.0,N
1627674615.3,286046997.3,N
1627674635.1,286046997.5,N
1627674636.0,286046997.5,N
1627674655.8,286046997.3,N
1627674675.7,286046996.6,N
1627674695.5,286046996.9,N
1627674715.3,286046997.3,N
1627674735.2,286046997.3,N
1627674755.9,286046996.9,N
1627674775.7,286046996.8,N
1627674795.6,286046997.5,N
1627674815.4,286046995.0,Y
1627674835.2,286046996.6,P
1627674855.1,286046996.5,P
1627674856.0,286046996.5,P
1627674875.8,286046998.7,N
1627674895.6,286047000.9,N
1627674915.5,286046998.5,N
1627674935.3,286046998.5,N
1627674955.1,286047001.1,N
1627674975.9,286046998.2,N
1627674995.7,286046998.1,N
1627675015.5,286047001.0,N
1627675035.4,286047000.6,N
1627675055.2,286047000.8,N
1627675075.0,286047001.2,N
1627675075.9,286047001.2,N
1627675095.8,286046998.6,N
1627675115.6,286046999.3,N
1627675135.4,286046999.3,N
1627675155.3,286046998.7,N
1627675175.1,286046999.4,N
1627675176.0,286046999.4,N
1627675195.8,286046999.1,N
